Lid_Strength_Index
3 3 3 3 2 2 1 1 1 2 2 1 1 2 2 2 2 1 1 -1 2 4 3 3 3 5 4 5 9 6 7 7 8 12 12 12 13 12 13 12 12 12 14 14 12 14 16 5 6 9 7 7 7 6
3 3 3 3 2 2 2 2 1 2 2 1 2 2 2 1 1 1 1 -1 -1 3 3 1 1 2 3 3 4 5 6 7 7 10 10 10 13 11 12 16 9 14 11 13 10 10 6 6 6 5 4 7 7 6
3 3 3 2 2 2 2 2 2 2 1 1 2 2 1 1 1 2 0 0 1 3 4 3 3 1 1 1 1 7 5 4 5 4 7 9 12 10 14 13 12 10 9 11 10 8 8 7 5 4 4 6 6 5
3 3 3 2 2 2 2 2 2 3 2 2 2 2 2 1 1 1 1 -1 1 3 7 6 0 2 1 0 1 1 3 2 3 4 7 9 11 8 11 11 13 11 10 12 11 10 9 8 7 6 6 6 6 4
3 3 3 2 2 2 2 2 2 2 3 2 1 1 1 1 1 1 0 -1 -1 3 7 6 2 1 1 1 1 1 3 3 5 6 7 8 7 9 9 9 12 9 11 13 13 10 11 9 8 6 5 5 5 5
4 4 3 2 2 2 2 2 2 2 2 2 1 1 1 1 2 2 3 -0 -1 -0 5 8 2 3 2 2 2 4 2 3 3 5 6 5 4 7 11 12 8 7 7 8 10 8 8 8 7 6 6 5 5 5
4 4 3 2 2 2 2 2 2 2 3 2 2 2 1 1 0 3 4 1 2 -0 4 7 6 3 2 2 2 4 2 4 3 4 5 4 6 6 8 12 7 6 6 7 6 7 9 9 10 7 7 6 6 7
4 4 3 2 2 2 2 2 2 2 3 3 2 2 2 2 2 2 -0 3 2 2 3 8 7 6 2 5 7 2 5 4 4 4 4 6 6 6 12 7 5 4 5 7 7 7 8 8 8 8 7 7 8 9
4 4 3 2 2 2 2 2 2 2 3 2 2 2 1 2 3 2 2 2 -1 2 7 7 9 9 3 5 4 5 4 8 4 8 7 6 10 14 9 6 6 5 5 5 6 7 7 8 9 9 9 9 10 10
4 3 2 2 2 2 3 2 2 2 3 2 1 2 5 2 2 2 1 4 4 4 4 8 5 8 4 5 7 6 5 8 10 7 5 8 10 5 4 4 4 3 4 3 5 6 7 8 8 9 9 9 9 9
4 3 2 2 2 2 2 2 2 2 3 1 2 4 1 2 1 3 6 6 5 7 6 6 4 6 2 7 7 5 6 7 11 8 7 8 9 6 4 4 3 3 3 3 3 3 4 6 7 8 9 9 9 10
4 3 3 3 2 2 2 3 2 1 0 1 1 -0 0 3 5 7 6 5 6 6 5 5 4 4 3 3 6 6 8 8 11 4 8 12 7 4 4 4 3 2 3 3 3 3 3 3 5 6 8 8 8 9
3 3 3 3 2 2 3 3 3 2 2 -0 2 4 4 5 11 9 10 8 8 4 4 4 5 3 5 4 7 7 9 10 4 8 13 8 5 4 4 3 3 2 2 3 3 2 2 3 2 4 6 7 7 8
3 3 3 2 3 3 3 3 2 2 1 4 5 12 6 8 7 6 6 6 4 4 4 4 5 4 5 7 7 9 7 5 9 13 12 7 5 4 3 2 2 3 3 3 3 2 3 3 3 3 4 4 6 7
3 3 3 2 2 3 3 3 3 0 2 4 4 11 7 5 4 4 4 4 3 3 4 5 5 6 8 9 6 8 9 11 10 11 7 6 4 3 3 3 2 2 2 2 2 2 2 2 3 3 3 3 3 5
3 3 0 2 2 2 2 3 2 -0 2 4 4 6 5 5 5 5 5 5 3 4 4 5 8 10 10 9 10 10 10 10 8 7 5 4 3 3 2 2 2 2 2 2 2 2 2 2 3 3 2 3 3 3
4 -0 3 2 2 2 2 0 1 3 4 5 6 3 5 5 5 5 4 4 2 5 9 9 11 11 7 9 11 8 9 6 5 6 4 3 3 2 2 2 2 2 1 2 1 1 2 1 2 2 3 3 3 2
-0 -0 2 2 2 1 -0 1 2 3 6 5 6 5 4 3 4 4 3 3 4 5 5 8 7 9 10 12 10 7 5 4 3 3 3 3 1 1 2 2 1 1 1 2 1 1 1 2 2 2 2 2 3 3
1 1 2 3 2 1 2 2 2 6 5 3 3 3 4 4 3 2 2 2 2 1 4 6 8 8 8 7 6 6 4 4 5 3 3 2 1 2 2 1 1 1 1 1 1 1 2 1 2 2 2 2 3 3
4 3 3 3 3 2 4 3 1 4 5 4 3 4 4 3 2 2 2 2 3 5 5 6 6 5 5 3 3 4 4 3 3 4 4 3 3 1 1 1 2 1 1 1 1 4 1 1 2 2 2 2 3 3
4 1 3 0 1 1 2 3 3 3 3 4 3 3 4 3 3 4 4 2 4 5 6 4 4 3 2 2 2 2 3 3 3 3 3 4 2 2 2 2 1 1 2 2 2 1 2 1 1 1 0 2 2 1
-0 2 -0 0 2 2 3 1 3 3 3 4 3 3 4 5 4 4 3 4 4 4 4 3 3 3 3 3 2 2 2 1 1 2 4 3 3 3 2 2 2 2 2 2 2 2 2 1 1 0 0 1 1 2
2 0 1 2 4 6 7 1 5 4 6 5 3 5 5 4 4 2 5 3 4 2 2 2 2 1 2 1 1 1 1 2 2 2 2 2 2 1 1 1 1 2 2 2 2 2 1 3 1 1 1 0 1 1
3 2 4 4 5 8 3 5 3 4 4 5 5 7 6 5 3 4 6 5 3 2 2 2 2 2 2 2 2 2 1 1 2 1 1 2 1 2 1 1 1 1 1 0 1 1 1 1 1 1 1 1 1 1
7 7 6 10 4 6 6 6 6 5 7 6 7 6 5 3 6 6 6 5 3 3 2 2 2 2 3 2 2 2 0 1 2 2 2 2 3 2 2 1 1 0 -1 1 1 2 2 2 1 1 1 1 1 1
11 5 9 5 5 6 6 8 7 7 6 7 6 4 4 5 8 8 6 4 3 3 2 2 2 3 3 2 3 3 2 1 1 3 2 2 2 2 2 2 2 2 -0 0 1 2 2 1 1 1 2 1 3 2
9 6 4 2 4 3 5 4 4 5 7 7 6 6 6 9 9 6 3 2 2 1 1 2 2 3 3 3 2 2 2 2 2 2 2 2 2 2 2 3 3 1 -0 0 -0 1 1 1 1 1 1 1 1 1
4 4 6 5 5 4 6 6 6 7 6 4 4 8 8 7 7 3 3 1 1 1 2 2 2 2 3 2 2 2 2 2 2 2 2 2 2 2 2 2 1 4 1 0 -0 -0 0 0 0 1 1 1 1 1
5 3 4 6 5 5 5 6 6 4 3 3 6 6 6 3 2 2 2 2 1 1 2 2 2 2 2 2 3 3 3 3 3 5 5 5 5 4 2 1 1 0 1 1 5 3 1 1 1 1 1 2 1 0
4 3 5 5 6 6 5 3 4 3 2 2 3 3 3 3 2 2 3 3 2 2 2 2 2 2 3 4 4 3 2 3 3 3 4 5 4 3 3 3 2 2 2 2 2 1 4 2 2 0 1 1 1 2
3 3 5 5 5 4 3 2 1 1 2 2 2 3 4 3 3 3 3 3 2 2 2 2 2 3 3 3 4 4 4 3 3 3 3 3 3 3 3 2 2 2 2 2 2 3 3 2 2 2 3 3 3 3
4 5 5 6 6 3 2 3 3 4 4 4 4 3 3 4 5 4 3 3 4 3 5 2 3 4 3 3 3 3 5 3 3 3 3 3 3 3 2 2 2 2 2 3 3 3 3 3 4 4 4 4 4 4
4 4 4 5 4 6 4 4 5 5 4 5 4 4 4 4 5 3 2 2 3 3 3 2 3 3 2 3 3 4 4 4 7 8 8 9 9 7 4 2 2 2 2 2 3 3 4 4 5 5 5 4 5 4